[TLELIST] Archives

 

[list_settings.list_name] Current TLEs

September 15th 2013 PST

HST 1 20580U 90037B 13257.86746920 .00001482 00000-0 92760-4 0 3328 2 20580 028.4708 044.7946 0002803 227.9492 262.8049 15.03917152 83217 ISS (ZARYA) 1 25544U 98067A 13258.37276230 .00005683 00000-0 10542-3 0 5981 2 25544 051.6515 021.4212 0003985 066.7497 036.9925 15.50560725848696 CXO 1 25867U 99040B 13260.49038042 .00000245 00000-0 00000+0 0 9510 2 25867 075.9495 334.2519 8469801 276.7884 000.4433 00.37804427 10880 ____________________________________________________________________ These 2-Line ...Continue Reading

[list_settings.list_name] Current TLEs

September 14th 2013 PST

HST 1 20580U 90037B 13256.80712994 .00001510 00000-0 94760-4 0 3318 2 20580 028.4707 051.7483 0002828 215.3072 283.3386 15.03916368 83054 ISS (ZARYA) 1 25544U 98067A 13257.39411753 .00009538 00000-0 17147-3 0 5894 2 25544 051.6513 026.2718 0004512 061.0221 336.3457 15.50562234848546 CXO 1 25867U 99040B 13257.84380626 .00000418 00000-0 00000+0 0 9504 2 25867 075.9327 334.4189 8474488 276.7815 000.2920 00.37803934 10870 ____________________________________________________________________ These 2-Line ...Continue Reading

[list_settings.list_name] Current TLEs

September 13th 2013 PST

HST 1 20580U 90037B 13255.80453941 .00001296 00000-0 79584-4 0 3308 2 20580 028.4706 058.3235 0002842 203.6773 256.1443 15.03914491 82893 ISS (ZARYA) 1 25544U 98067A 13256.43948073 .00010012 00000-0 17970-3 0 5846 2 25544 051.6520 031.0062 0004460 059.5739 045.5184 15.50546501848396 CXO 1 25867U 99040B 13255.19939560 .00000379 00000-0 00000+0 0 9491 2 25867 075.9207 334.5578 8476968 276.7779 000.4542 00.37800427 10869 ____________________________________________________________________ These 2-Line ...Continue Reading

[list_settings.list_name] Current TLEs

September 12th 2013 PST

HST 1 20580U 90037B 13253.95223914 .00001190 00000-0 72131-4 0 3299 2 20580 028.4704 070.4712 0002875 182.3444 309.1971 15.03909845 82623 ISS (ZARYA) 1 25544U 98067A 13255.40645532 .00010675 00000-0 19117-3 0 5756 2 25544 051.6520 036.1305 0004099 055.0293 039.9963 15.50531784848238 CXO 1 25867U 99040B 13255.19939560 .00000379 00000-0 00000+0 0 9491 2 25867 075.9207 334.5578 8476968 276.7779 000.4542 00.37800427 10869 ____________________________________________________________________ These 2-Line ...Continue Reading

[list_settings.list_name] Current TLEs

September 11th 2013 PST

HST 1 20580U 90037B 13253.95223914 .00001190 00000-0 72131-4 0 3299 2 20580 028.4704 070.4712 0002875 182.3444 309.1971 15.03909845 82623 ISS (ZARYA) 1 25544U 98067A 13254.37403433 .00005453 00000-0 10174-3 0 5687 2 25544 051.6511 041.2469 0003624 057.8906 030.4668 15.50488357848077 CXO 1 25867U 99040B 13255.19939560 .00000379 00000-0 00000+0 0 9491 2 25867 075.9207 334.5578 8476968 276.7779 000.4542 00.37800427 10869 ____________________________________________________________________ These 2-Line ...Continue Reading

[list_settings.list_name] Current TLEs

September 10th 2013 PST

HST 1 20580U 90037B 13250.96875564 .00001353 00000-0 83663-4 0 3272 2 20580 028.4700 090.0378 0002996 149.5055 357.4174 15.03902759 82170 ISS (ZARYA) 1 25544U 98067A 13253.39849788 .00005592 00000-0 10416-3 0 5633 2 25544 051.6506 046.0777 0003909 050.3639 349.2143 15.50477711847927 CXO 1 25867U 99040B 13255.19939560 .00000379 00000-0 00000+0 0 9491 2 25867 075.9207 334.5578 8476968 276.7779 000.4542 00.37800427 10869 ____________________________________________________________________ These 2-Line ...Continue Reading

[list_settings.list_name] Current TLEs

September 9th 2013 PST

HST 1 20580U 90037B 13250.96875564 .00001353 00000-0 83663-4 0 3272 2 20580 028.4700 090.0378 0002996 149.5055 357.4174 15.03902759 82170 ISS (ZARYA) 1 25544U 98067A 13252.42909670 .00005866 00000-0 10892-3 0 5578 2 25544 051.6507 050.8787 0003804 046.4401 338.6661 15.50467016847776 CXO 1 25867U 99040B 13252.55557586 .00000328 00000-0 00000+0 0 9485 2 25867 075.9092 334.7086 8478927 276.7732 000.6908 00.37805213 10858 ____________________________________________________________________ These 2-Line ...Continue Reading

[list_settings.list_name] Current TLEs

September 8th 2013 PST

HST 1 20580U 90037B 13250.96875564 .00001353 00000-0 83663-4 0 3272 2 20580 028.4700 090.0378 0002996 149.5055 357.4174 15.03902759 82170 ISS (ZARYA) 1 25544U 98067A 13251.34143140 .00001260 00000-0 29633-4 0 5501 2 25544 051.6499 056.2734 0004046 047.1041 023.0224 15.50455849847608 CXO 1 25867U 99040B 13252.55557586 .00000328 00000-0 00000+0 0 9485 2 25867 075.9092 334.7086 8478927 276.7732 000.6908 00.37805213 10858 ____________________________________________________________________ These 2-Line ...Continue Reading

[list_settings.list_name] Current TLEs

September 7th 2013 PST

HST 1 20580U 90037B 13249.96668697 .00001413 00000-0 87949-4 0 3264 2 20580 028.4699 096.6093 0003050 139.3901 331.5863 15.03900628 82027 ISS (ZARYA) 1 25544U 98067A 13250.37532554 .00011485 00000-0 20565-3 0 5430 2 25544 051.6466 061.0622 0003599 039.4348 034.7134 15.50449552847454 CXO 1 25867U 99040B 13252.55557586 .00000328 00000-0 00000+0 0 9485 2 25867 075.9092 334.7086 8478927 276.7732 000.6908 00.37805213 10858 ____________________________________________________________________ These 2-Line ...Continue Reading

[list_settings.list_name] Current TLEs

September 6th 2013 PST

HST 1 20580U 90037B 13248.83870258 .00001424 00000-0 88683-4 0 3254 2 20580 028.4698 104.0069 0003119 127.2079 344.7728 15.03898250 81854 ISS (ZARYA) 1 25544U 98067A 13249.53119278 .00007968 00000-0 14534-3 0 5373 2 25544 051.6503 065.2481 0003523 041.4212 358.0166 15.50414019847328 CXO 1 25867U 99040B 13249.91200265 .00000393 00000-0 00000+0 0 9471 2 25867 075.8930 334.8894 8478961 276.7739 000.9055 00.37802254 10848 ____________________________________________________________________ These 2-Line ...Continue Reading
  • This mailing list is a public mailing list - anyone may join or leave, at any time.
  • This mailing list is announce-only.

International Space Station (ISS) / Hubble Space Telescope (HST) / Chandra X-Ray Observatory Orbital Data via EMAIL

Privacy Policy:

Private list